Starlink 1911

operational
NORAD ID: 46749 Int'l Des: 2020-074 Owner: SPXS Country: US Constellation: starlink
LEOCIRCULARSTARLINK_TYPE

Starlink 1911について

説明を読み込み中...

リアルタイム位置

3D地球を読み込み中...

次回通過

高度履歴

Altitude vs Time

uPlot chart will show altitude changes over time

軌道要素

1 46749U 20074L 25304.33336806 .01876325 00000-0 73723-1 0 9994
2 46749 53.0552 181.8408 0001712 67.0878 286.5957 15.21945505 5801
Epoch: Oct 31, 2025 • Age: 10 hours

現在のステータス

高度 495.8 km
速度 7.62 km/s
衛星直下点 10.71°N, 38.32°E
打ち上げ日 Oct 24, 2020
運用期間 5 years
タイプ internet

技術仕様

分類 Payload
質量 260.00 kg
乾燥質量 248.00 kg
総質量 260.00 kg
長さ 0.20 m
直径 2.80 m
スパン 9.00 m
形状 Box + pan
製造者 SPXS
バスタイプ Starlink
フェーズステータス In Orbit
所有者/国 SPXS/US

大規模コンステレーション

Loading constellations...